Change the Weather History Date:

Friday, May 3, 2013

  Actual Average Record
Temperature  
Mean Temperature 56 °F -  
Max Temperature 66 °F 63 °F 87 °F (2001)
Min Temperature 46 °F 42 °F 33 °F (2005)
Degree Days  
Heating Degree Days 9    
Growing Degree Days 6 (Base 50)    
Moisture  
Dew Point 36 °F    
Average Humidity 55    
Maximum Humidity 81    
Minimum Humidity 35    
Precipitation  
Precipitation 0.00 in - - ()
Sea Level Pressure  
Sea Level Pressure 30.43 in    
Wind  
Wind Speed 8 mph (East)    
Max Wind Speed 13 mph    
Max Gust Speed 18 mph    
Visibility 10 miles    
Events      
Averages and records for this station are not official NWS values.
T = Trace of Precipitation, MM = Missing Value Source: NWS Daily Summary

Daily Weather History Graph

Daily Weather History Graph

Search for Another Location

Airport or City:

Trip Planner

Search our weather history database for the weather conditions in past years. The results will help you decide how hot, cold, wet, or windy it might be!

Date:

Astronomy

May. 03, 2013 Rise Set
Actual Time 5:46 AM EDT 7:52 PM EDT
Civil Twilight 5:16 AM EDT 8:23 PM EDT
Nautical Twilight 4:39 AM EDT 9:00 PM EDT
Astronomical Twilight 3:58 AM EDT 9:41 PM EDT
Moon 2:14 AM EDT (5/3) 1:39 PM EDT (5/3)
Length of Visible Light 15h 06m
Length of Day
14h 05m
Last Quarter, 37% of the Moon is Illuminated
May 3
Last Quarter
May 9
New
May 18
First Quarter
May 25
Full
May 31
Last Quarter

Hourly Weather History & Observations

Time (EDT) Temp. Windchill Dew Point Humidity Pressure Visibility Wind Dir Wind Speed Gust Speed Precip Events Conditions
12:15 AM 55.4 °F - 39.2 °F 54% 30.44 in 10.0 mi East 8.1 mph 17.3 mph N/A   Mostly Cloudy
12:35 AM 55.4 °F - 37.4 °F 51% 30.43 in 10.0 mi East 12.7 mph 17.3 mph N/A   Mostly Cloudy
12:55 AM 55.4 °F - 35.6 °F 47% 30.43 in 10.0 mi East 5.8 mph - N/A   Overcast
1:15 AM 55.4 °F - 35.6 °F 47% 30.44 in 10.0 mi East 10.4 mph - N/A   Overcast
1:35 AM 53.6 °F - 35.6 °F 51% 30.44 in 10.0 mi East 5.8 mph - N/A   Overcast
1:55 AM 53.6 °F - 33.8 °F 47% 30.44 in 10.0 mi ESE 11.5 mph - N/A   Overcast
2:35 AM 51.8 °F - 30.2 °F 44% 30.45 in 10.0 mi East 4.6 mph 16.1 mph N/A   Overcast
2:55 AM 51.8 °F - 30.2 °F 44% 30.45 in 10.0 mi East 5.8 mph - N/A   Overcast
3:15 AM 51.8 °F - 30.2 °F 44% 30.44 in 10.0 mi ENE 8.1 mph - N/A   Overcast
3:35 AM 50.0 °F - 30.2 °F 47% 30.45 in 10.0 mi East 9.2 mph - N/A   Overcast
3:55 AM 50.0 °F - 30.2 °F 47% 30.45 in 10.0 mi ENE 6.9 mph - N/A   Overcast
4:15 AM 48.2 °F - 30.2 °F 50% 30.45 in 10.0 mi ENE 10.4 mph - N/A   Overcast
4:35 AM 48.2 °F - 30.2 °F 50% 30.45 in 10.0 mi ENE 6.9 mph - N/A   Overcast
5:15 AM 48.2 °F - 30.2 °F 50% 30.47 in 10.0 mi ENE 5.8 mph - N/A   Overcast
5:35 AM 48.2 °F - 30.2 °F 50% 30.47 in 10.0 mi ENE 8.1 mph - N/A   Overcast
5:50 AM 48.2 °F - 32.0 °F 54% 30.47 in 10.0 mi ENE 6.9 mph - N/A   Mostly Cloudy
6:50 AM 46.4 °F 42.9 °F 32.0 °F 57% 30.48 in 10.0 mi NE 6.9 mph - N/A   Clear
7:45 AM 48.2 °F - 33.8 °F 58% 30.48 in 10.0 mi East 5.8 mph - N/A   Clear
8:45 AM 50.0 °F - 33.8 °F 54% 30.48 in 10.0 mi East 10.4 mph 18.4 mph N/A   Clear
9:45 AM 51.8 °F - 35.6 °F 54% 30.48 in 10.0 mi East 4.6 mph 16.1 mph N/A   Clear
10:45 AM 55.4 °F - 35.6 °F 47% 30.47 in 10.0 mi ENE 11.5 mph 17.3 mph N/A   Clear
11:45 AM 57.2 °F - 37.4 °F 48% 30.46 in 10.0 mi NE 11.5 mph 17.3 mph N/A   Clear
12:55 PM 59.0 °F - 37.4 °F 45% 30.43 in 10.0 mi NNE 8.1 mph 17.3 mph N/A   Clear
3:45 PM 66.2 °F - 37.4 °F 35% 30.38 in 10.0 mi East 12.7 mph 16.1 mph N/A   Clear
4:45 PM 62.6 °F - 39.2 °F 42% 30.38 in 10.0 mi SSE 8.1 mph 17.3 mph N/A   Clear
6:45 PM 57.2 °F - 41.0 °F 55% 30.38 in 10.0 mi SSW 9.2 mph - N/A   Clear
7:45 PM 55.4 °F - 39.2 °F 54% 30.39 in 10.0 mi SSW 9.2 mph - N/A   Clear
9:15 PM 51.8 °F - 39.2 °F 62% 30.40 in 10.0 mi SE 3.5 mph - N/A   Clear
9:35 PM 50.0 °F - 39.2 °F 66% 30.41 in 10.0 mi South 4.6 mph - N/A   Clear
9:55 PM 48.2 °F - 39.2 °F 71% 30.41 in 10.0 mi Calm Calm - N/A   Clear
10:15 PM 48.2 °F - 41.0 °F 76% 30.41 in 10.0 mi South 4.6 mph - N/A   Clear
10:35 PM 48.2 °F - 41.0 °F 76% 30.41 in 10.0 mi Calm Calm - N/A   Clear
10:55 PM 48.2 °F - 41.0 °F 76% 30.40 in 10.0 mi Calm Calm - N/A   Clear
11:35 PM 46.4 °F - 39.2 °F 76% 30.40 in 10.0 mi Calm Calm - N/A   Clear
11:55 PM 46.4 °F - 41.0 °F 81% 30.40 in 10.0 mi Calm Calm - N/A   Clear